パンスターズ彗星

P/2016 A7 ( PanSTARRS )

English version
Home page
Updated on August 9, 2016

---------------------------------------------------------------------

・ プロフィール

発見日 2016年1月14日
発見光度 21.5等
発見者 Pan-STARRS 1 telescope (Haleakala)

・ 軌道要素

Epoch 2016 Feb. 22.0 TT = JDT 2457440.5
T 2016 Feb. 25.86439 TT                                 MPCW
q   2.1766394            (2000.0)            P               Q
n   0.08756001     Peri.  352.47032     -0.82602558     +0.53079079
a   5.0226415      Node   221.46606     -0.50105225     -0.84556826
e   0.5666345      Incl.   16.63702     -0.25812474     -0.05723160
P  11.26
From 43 observations 2016 Jan. 14-June 7, mean residual 0".4.

・ 光度変化

        m1 = 15.5 + 5 logΔ + 10.0 log r

---------------------------------------------------------------------

軌道要素はM.P.E.C. 2016-M09に掲載されたものです。
光度グラフはComet for Windowsで作成したものです。

---------------------------------------------------------------------

Copyright(C) Seiichi Yoshida (comet@aerith.net). All rights reserved.